TimeCST,TemperatureF,Dew PointF,Humidity,Sea Level PressureIn,VisibilityMPH,Wind Direction,Wind SpeedMPH,Gust SpeedMPH,PrecipitationIn,Events,Conditions,WindDirDegrees,DateUTC
12:11 AM,-2.2,-5.8,85,30.38,10.0,NW,3.5,-,N/A,,Clear,310,2012-12-26 06:11:00
12:31 AM,-2.2,-5.8,85,30.38,10.0,NW,4.6,-,N/A,,Clear,310,2012-12-26 06:31:00
12:51 AM,-2.2,-5.8,85,30.37,10.0,West,4.6,-,N/A,,Clear,280,2012-12-26 06:51:00
1:11 AM,-0.4,-4.0,85,30.38,10.0,Calm,Calm,-,N/A,,Clear,0,2012-12-26 07:11:00
1:31 AM,-0.4,-4.0,85,30.38,10.0,Calm,Calm,-,N/A,,Clear,0,2012-12-26 07:31:00
1:51 AM,-2.2,-7.6,78,30.37,10.0,Calm,Calm,-,N/A,,Clear,0,2012-12-26 07:51:00
2:11 AM,-0.4,-4.0,85,30.38,10.0,NW,3.5,-,N/A,,Clear,310,2012-12-26 08:11:00
2:31 AM,-0.4,-4.0,85,30.38,10.0,Calm,Calm,-,N/A,,Clear,0,2012-12-26 08:31:00
2:51 AM,-0.4,-4.0,85,30.37,10.0,Calm,Calm,-,N/A,,Clear,0,2012-12-26 08:51:00
3:11 AM,-0.4,-2.2,92,30.36,10.0,Calm,Calm,-,N/A,,Clear,0,2012-12-26 09:11:00
3:31 AM,1.4,-2.2,85,30.36,10.0,Calm,Calm,-,N/A,,Clear,0,2012-12-26 09:31:00
3:51 AM,1.4,-0.4,92,30.35,10.0,NNE,3.5,-,N/A,,Clear,20,2012-12-26 09:51:00
4:11 AM,3.2,-0.4,85,30.35,10.0,North,3.5,-,N/A,,Clear,360,2012-12-26 10:11:00
4:31 AM,3.2,-0.4,85,30.35,10.0,Calm,Calm,-,N/A,,Clear,0,2012-12-26 10:31:00
4:51 AM,3.2,-0.4,85,30.34,10.0,Calm,Calm,-,N/A,,Clear,0,2012-12-26 10:51:00
5:11 AM,3.2,-0.4,85,30.34,10.0,Calm,Calm,-,N/A,,Clear,0,2012-12-26 11:11:00
5:31 AM,3.2,-0.4,85,30.33,10.0,Calm,Calm,-,N/A,,Clear,0,2012-12-26 11:31:00
5:51 AM,5.0,-0.4,78,30.33,10.0,Calm,Calm,-,N/A,,Clear,0,2012-12-26 11:51:00
6:11 AM,5.0,-0.4,78,30.32,10.0,NNE,3.5,-,N/A,,Scattered Clouds,20,2012-12-26 12:11:00
6:31 AM,5.0,-0.4,78,30.32,10.0,North,4.6,-,N/A,,Scattered Clouds,10,2012-12-26 12:31:00
6:51 AM,5.0,-0.4,78,30.31,10.0,North,4.6,-,N/A,,Scattered Clouds,10,2012-12-26 12:51:00
7:11 AM,5.0,-0.4,78,30.31,10.0,NNE,4.6,-,N/A,,Clear,20,2012-12-26 13:11:00
7:31 AM,5.0,-0.4,78,30.31,10.0,NNE,4.6,-,N/A,,Clear,20,2012-12-26 13:31:00
7:51 AM,6.8,1.4,79,30.31,10.0,NNE,4.6,-,N/A,,Scattered Clouds,20,2012-12-26 13:51:00
8:11 AM,6.8,-0.4,72,30.30,10.0,NNE,4.6,-,N/A,,Scattered Clouds,20,2012-12-26 14:11:00
8:31 AM,6.8,-0.4,72,30.31,10.0,North,4.6,-,N/A,,Clear,10,2012-12-26 14:31:00
8:51 AM,6.8,1.4,79,30.31,10.0,NNW,4.6,-,N/A,,Clear,330,2012-12-26 14:51:00
9:11 AM,6.8,1.4,79,30.31,10.0,NNW,4.6,-,N/A,,Clear,340,2012-12-26 15:11:00
9:31 AM,6.8,1.4,79,30.31,10.0,North,4.6,-,N/A,,Clear,10,2012-12-26 15:31:00
9:51 AM,6.8,1.4,79,30.31,10.0,NNW,5.8,-,N/A,,Clear,340,2012-12-26 15:51:00
10:10 AM,8.6,1.4,73,30.31,10.0,North,4.6,-,N/A,,Clear,350,2012-12-26 16:10:00
10:31 AM,8.6,1.4,73,30.31,10.0,NNE,4.6,-,N/A,,Clear,20,2012-12-26 16:31:00
10:51 AM,8.6,1.4,73,30.31,10.0,NNE,3.5,-,N/A,,Clear,20,2012-12-26 16:51:00
11:10 AM,10.4,1.4,67,30.31,10.0,NE,4.6,-,N/A,,Clear,40,2012-12-26 17:10:00
11:31 AM,10.4,1.4,67,30.30,10.0,Calm,Calm,-,N/A,,Clear,0,2012-12-26 17:31:00
11:51 AM,10.4,1.4,67,30.29,10.0,North,4.6,-,N/A,,Clear,10,2012-12-26 17:51:00
12:31 PM,12.2,3.2,67,30.28,10.0,Calm,Calm,-,N/A,,Clear,0,2012-12-26 18:31:00
12:51 PM,12.2,3.2,67,30.27,10.0,East,3.5,-,N/A,,Scattered Clouds,80,2012-12-26 18:51:00
1:10 PM,12.2,3.2,67,30.27,10.0,Calm,Calm,-,N/A,,Scattered Clouds,0,2012-12-26 19:10:00
1:31 PM,12.2,3.2,67,30.26,10.0,Calm,Calm,-,N/A,,Clear,0,2012-12-26 19:31:00
1:51 PM,14.0,3.2,62,30.26,10.0,Calm,Calm,-,N/A,,Clear,0,2012-12-26 19:51:00
2:10 PM,14.0,3.2,62,30.25,10.0,ENE,3.5,-,N/A,,Clear,60,2012-12-26 20:10:00
2:31 PM,15.8,3.2,58,30.26,10.0,NE,4.6,-,N/A,,Clear,50,2012-12-26 20:31:00
2:51 PM,15.8,3.2,58,30.26,10.0,NNE,3.5,-,N/A,,Clear,30,2012-12-26 20:51:00
3:11 PM,15.8,3.2,58,30.26,10.0,Calm,Calm,-,N/A,,Clear,0,2012-12-26 21:11:00
3:31 PM,15.8,3.2,58,30.25,10.0,NE,3.5,-,N/A,,Clear,40,2012-12-26 21:31:00
3:51 PM,14.0,3.2,62,30.25,10.0,Calm,Calm,-,N/A,,Clear,0,2012-12-26 21:51:00
4:11 PM,14.0,3.2,62,30.25,10.0,Calm,Calm,-,N/A,,Clear,0,2012-12-26 22:11:00
4:31 PM,12.2,3.2,67,30.25,10.0,Calm,Calm,-,N/A,,Clear,0,2012-12-26 22:31:00
4:51 PM,12.2,3.2,67,30.25,10.0,Calm,Calm,-,N/A,,Clear,0,2012-12-26 22:51:00
5:11 PM,10.4,3.2,73,30.25,10.0,Calm,Calm,-,N/A,,Clear,0,2012-12-26 23:11:00
5:31 PM,10.4,1.4,67,30.25,10.0,Calm,Calm,-,N/A,,Clear,0,2012-12-26 23:31:00
5:51 PM,10.4,1.4,67,30.25,10.0,Calm,Calm,-,N/A,,Clear,0,2012-12-26 23:51:00
6:11 PM,5.0,-0.4,78,30.25,10.0,Calm,Calm,-,N/A,,Clear,0,2012-12-27 00:11:00
6:31 PM,3.2,-0.4,85,30.25,10.0,Calm,Calm,-,N/A,,Clear,0,2012-12-27 00:31:00
6:51 PM,-0.4,-4.0,85,30.26,10.0,Calm,Calm,-,N/A,,Clear,0,2012-12-27 00:51:00
7:11 PM,1.4,-4.0,78,30.26,10.0,Calm,Calm,-,N/A,,Clear,0,2012-12-27 01:11:00
7:31 PM,-0.4,-2.2,92,30.26,10.0,Calm,Calm,-,N/A,,Clear,0,2012-12-27 01:31:00
7:51 PM,5.0,-0.4,78,30.25,10.0,Calm,Calm,-,N/A,,Clear,0,2012-12-27 01:51:00
8:11 PM,1.4,-2.2,85,30.25,10.0,Calm,Calm,-,N/A,,Clear,0,2012-12-27 02:11:00
8:31 PM,1.4,-0.4,92,30.25,10.0,Calm,Calm,-,N/A,,Scattered Clouds,0,2012-12-27 02:31:00
8:51 PM,1.4,-2.2,85,30.24,10.0,Calm,Calm,-,N/A,,Mostly Cloudy,0,2012-12-27 02:51:00
9:11 PM,5.0,1.4,85,30.25,10.0,Calm,Calm,-,N/A,,Overcast,0,2012-12-27 03:11:00
9:31 PM,6.8,1.4,79,30.25,10.0,Calm,Calm,-,N/A,,Overcast,0,2012-12-27 03:31:00
9:51 PM,1.4,-2.2,85,30.23,10.0,Calm,Calm,-,N/A,,Overcast,0,2012-12-27 03:51:00
10:11 PM,6.8,1.4,79,30.24,10.0,Calm,Calm,-,N/A,,Overcast,0,2012-12-27 04:11:00
10:31 PM,5.0,1.4,85,30.23,10.0,Calm,Calm,-,N/A,,Overcast,0,2012-12-27 04:31:00
10:51 PM,6.8,1.4,79,30.23,10.0,Calm,Calm,-,N/A,,Scattered Clouds,0,2012-12-27 04:51:00
11:11 PM,6.8,1.4,79,30.23,10.0,Calm,Calm,-,N/A,,Clear,0,2012-12-27 05:11:00
11:31 PM,5.0,1.4,85,30.22,10.0,Calm,Calm,-,N/A,,Clear,0,2012-12-27 05:31:00
11:51 PM,3.2,-0.4,85,30.22,10.0,Calm,Calm,-,N/A,,Clear,0,2012-12-27 05:51:00